Regional Weather Roundup
Issued by NWS

Home | Current Version | Previous Version | Graphics & Text | Print | Product List | Glossary On
Versions: 1 2 3 4 5 6 7 8 9 10 11 12 13 14 15 16 17 18 19 20 21 22 23 24 25 26 27
000
ASUS45 KBOU 211607
RWRCO

WEATHER ROUNDUP FOR COLORADO
NATIONAL WEATHER SERVICE DENVER/BOULDER CO
900 AM MST TUE FEB 21 2017

NOTE: "FAIR" INDICATES FEW OR NO CLOUDS BELOW 12000 FEET WITH NO
SIGNIFICANT WEATHER AND/OR OBSTRUCTIONS TO VISIBILITY.

COZ001>005-013-030-031-211700-
...NORTHWEST COLORADO...

CITY           SKY/WX    TMP DP  RH WIND       PRES   REMARKS
CRAIG          PTSUNNY   47  31  53 SW13      30.21R
HAYDEN         CLOUDY    41  28  60 E5        30.22R
MEEKER         FAIR      48  34  58 S20G28    30.22S
MOUNT WERNER   NOT AVBL
STEAMBOAT SPGS CLOUDY    39  29  67 E5        30.22S
WALDEN         NOT AVBL
$$

COZ006>008-011-211700-
...WEST CENTRAL VALLEYS...

CITY           SKY/WX    TMP DP  RH WIND       PRES   REMARKS
GRAND JUNCTION FAIR      46  37  71 E6        30.27S
MONTROSE       FAIR      47  32  56 E8        30.33F
EAGLE          PTSUNNY   39  30  70 E7        30.29F
RIFLE          CLOUDY    45  36  70 CALM      30.27S
DELTA          FAIR      46  36  69 CALM      30.32S
NUCLA          FAIR      46  34  61 NE5       30.37S
$$

COZ017>023-064>068-211700-
...SOUTHWEST COLORADO...

CITY           SKY/WX    TMP DP  RH WIND       PRES   REMARKS
DURANGO        FAIR      38  29  70 E5        30.41S
CORTEZ         FAIR      45  38  76 CALM      30.38S
PAGOSA SPRINGS FAIR      36  26  68 SW3       30.43S
TELLURIDE      FAIR      35  24  63 SE5       30.42S WCI  31
WOLF CREEK PAS FAIR      27  18  69 SW12      30.52R WCI  16
$$

COZ009-010-012-014-032>034-037-058>063-211700-
...CENTRAL COLORADO...

CITY           SKY/WX    TMP DP  RH WIND       PRES   REMARKS
ASPEN          FAIR      36  23  59 VRB3      30.30S
BUENA VISTA    FAIR      43  24  46 CALM      30.31S
COPPER MTN     FAIR      30  18  59 MISG      30.38S
BERTHOUD PASS  FAIR      21  12  68 W24G35    30.33S WCI   4
COTTONWOOD PAS FAIR      39  21  48 W10G22    30.36R
GUNNISON       FAIR      23  18  81 CALM      30.42R
KREMMLING      FAIR      46  30  53 SW9G21    30.26S
LEADVILLE      FAIR      32  19  58 CALM      30.34R
MONARCH PASS   CLOUDY    25  23  93 SW18G26   30.53R WCI  11
SALIDA         FAIR      49  23  36 SW15G21   30.39S
SUNLIGHT       NOT AVBL
WILKERSON PASS FAIR      28  19  69 SW13G21   30.39S WCI  18
$$

COZ069>075-211700-
...SAN LUIS VALLEY/SANGRE DE CRISTO MOUNTAINS...

CITY           SKY/WX    TMP DP  RH WIND       PRES   REMARKS
ALAMOSA        FAIR      34  29  82 S6        30.40R WCI  29
LA VETA PASS   FAIR      32  23  69 NE29G38   30.37R WCI  18
SAGUACHE       FAIR      36  23  60 CALM      30.41R
$$

COZ035-036-038>040-211700-
...NORTHERN COLORADO FRONT RANGE...

CITY           SKY/WX    TMP DP  RH WIND       PRES   REMARKS
DENVER INTL AP FAIR      62  20  19 SW16G24   30.06S
DMNS CITY PARK   N/A     62  16  16 W13G30    30.06R
AURORA         MOSUNNY   61  17  18 W17G25    30.09R
FRONT RANGE AP MOSUNNY   63  21  20 W18G24    30.08S
ERIE MUNI ARPT FAIR      62  18  18 W30G47    30.04R
BOULDER MUN AP FAIR      61  23  23 W39G51    30.05R
CENTENNIAL     FAIR      60  17  18 W18G24    30.09S
BROOMFIELD     MOSUNNY   63  18  17 W36G45    30.05R
FORT COLLINS   FAIR      59  25  27 W33G39    29.98F
LONGMONT       FAIR      63  23  21 W33G47    30.06R
$$

COZ041-046-047-076>085-087-088-211700-
...PIKES PEAK/PALMER DIVIDE AND SOUTHERN FOOTHILLS...

CITY           SKY/WX    TMP DP  RH WIND       PRES   REMARKS
COLO. SPRINGS  FAIR      62   8  12 W24G31    30.13R
A. F. ACADEMY  FAIR      55  19  25 W31G47    30.11F
SCHRIEVER AFB  FAIR      59  14  17 NW13G20   30.14S
ELLICOTT       FAIR     N/A N/A N/A W12       30.13S
FALCON         FAIR      57  13  18 NW15G26   30.17R
FORT CARSON    FAIR      59  19  21 CALM      30.13R
LIMON          FAIR      54  21  27 CALM      30.09F
MONUMENT HILL  FAIR      55  14  19 W16G24    30.17F
TRINIDAD       FAIR      56  18  22 SW6       30.17S
$$

COZ042>045-048>051-090-091-211700-
...NORTHEAST COLORADO...

CITY           SKY/WX    TMP DP  RH WIND       PRES   REMARKS
GREELEY ARPT   FAIR      61  26  26 W20       30.03S
AKRON          FAIR      59  25  27 W21       30.04R
BURLINGTON     FAIR      62  25  24 NW18      30.04R
WRAY           NOT AVBL
STERLING       FAIR      50  25  37 SW9       30.00S
HOLYOKE        FAIR      59  25  27 W7        30.01S
FORT MORGAN    FAIR      51  25  36 W9        30.03S
$$

COZ086-089-092>099-211700-
...SOUTHEAST COLORADO...

CITY           SKY/WX    TMP DP  RH WIND       PRES   REMARKS
PUEBLO         FAIR      63  24  22 W30G40    30.09F
LA JUNTA       FAIR      61  27  27 W18       30.10R
LAMAR          FAIR      53  21  28 W9        30.07R
SPRINGFIELD      N/A     63  25  23 NW30G39   30.07S
$$




USA.gov is the U.S. government's official web portal to all federal, state and local government web resources and services.